When you browse on this site, cookies collect data to enhance your experience and personalize the content and advertising you see.
Visit our Privacy Policy to learn more. By continuing to use the site, you agree to this use of cookies and data.
  • In Hungary
  • List of Countries
  • For 7 days
  • Water Temperature
  • Satellite Maps
  • Weather Map
  • News
  • Weather Widgets
  • user-avatar
    Login

    Hourly Weather Lemnos

    Today, 21 November, Wednesday

    Time Temperature Precipitation Wind Pressure Humidity
    00:00 +17°C° 0.3 mm 7 mps 758 mmHg 93%
    01:00 +17°C° 0.3 mm 7 mps 757 mmHg 93%
    02:00 +17°C° 0.3 mm 7 mps 757 mmHg 94%
    03:00 +17°C° 0.7 mm 8 mps 756 mmHg 94%
    04:00 +17°C° 0.7 mm 8 mps 756 mmHg 94%
    05:00 +17°C° 0.7 mm 8 mps 755 mmHg 94%
    06:00 +17°C° 1.5 mm 9 mps 755 mmHg 92%
    07:00 +17°C° 1.5 mm 9 mps 754 mmHg 89%
    08:00 +17°C° 1.5 mm 9 mps 754 mmHg 87%
    09:00 +18°C° 2.4 mm 9 mps 754 mmHg 83%
    10:00 +18°C° 2.4 mm 8 mps 754 mmHg 80%
    11:00 +20°C° 2.4 mm 8 mps 754 mmHg 76%
    12:00 +20°C° 0.3 mm 7 mps 753 mmHg 73%
    13:00 +20°C° 0.3 mm 6 mps 753 mmHg 70%
    14:00 +20°C° 0.3 mm 5 mps 753 mmHg 67%
    15:00 +20°C° 0 mm 5 mps 753 mmHg 70%
    16:00 +19°C° 0 mm 5 mps 753 mmHg 72%
    17:00 +19°C° 0 mm 5 mps 753 mmHg 75%
    18:00 +19°C° 0 mm 5 mps 753 mmHg 75%
    19:00 +18°C° 0 mm 4 mps 754 mmHg 76%
    20:00 +18°C° 0 mm 4 mps 754 mmHg 76%
    21:00 +18°C° 0.2 mm 4 mps 754 mmHg 74%
    22:00 +17°C° 0.2 mm 5 mps 755 mmHg 72%
    23:00 +16°C° 0.2 mm 5 mps 755 mmHg 70%

    Tomorrow, 22 November, Thursday

    Time Temperature Precipitation Wind Pressure Humidity
    00:00 +16°C° 0.1 mm 5 mps 755 mmHg 69%
    01:00 +16°C° 0.1 mm 6 mps 756 mmHg 68%
    02:00 +16°C° 0.1 mm 6 mps 756 mmHg 67%
    03:00 +15°C° 0 mm 6 mps 756 mmHg 69%
    04:00 +15°C° 0 mm 6 mps 757 mmHg 72%
    05:00 +15°C° 0 mm 6 mps 757 mmHg 74%
    06:00 +15°C° 0 mm 6 mps 757 mmHg 74%
    07:00 +15°C° 0 mm 6 mps 758 mmHg 74%
    08:00 +15°C° 0 mm 6 mps 758 mmHg 74%
    09:00 +15°C° 0 mm 6 mps 758 mmHg 72%
    10:00 +15°C° 0 mm 6 mps 759 mmHg 70%
    11:00 +16°C° 0 mm 6 mps 759 mmHg 69%
    12:00 +16°C° 0 mm 7 mps 759 mmHg 69%
    13:00 +15°C° 0 mm 7 mps 759 mmHg 69%
    14:00 +15°C° 0 mm 7 mps 759 mmHg 69%
    15:00 +15°C° 0 mm 8 mps 760 mmHg 70%
    16:00 +15°C° 0 mm 9 mps 760 mmHg 71%
    17:00 +13°C° 0 mm 9 mps 760 mmHg 72%
    18:00 +13°C° 0 mm 10 mps 761 mmHg 73%
    19:00 +13°C° 0 mm 10 mps 761 mmHg 75%
    20:00 +12°C° 0 mm 10 mps 762 mmHg 76%
    21:00 +12°C° 0 mm 10 mps 762 mmHg 75%
    22:00 +12°C° 0 mm 10 mps 762 mmHg 74%
    23:00 +12°C° 0 mm 10 mps 762 mmHg 73%

    Day after tomorrow, 23 November, Friday

    Time Temperature Precipitation Wind Pressure Humidity
    00:00 +12°C° 0 mm 10 mps 763 mmHg 73%
    01:00 +12°C° 0 mm 10 mps 763 mmHg 73%
    02:00 +11°C° 0 mm 10 mps 763 mmHg 73%
    03:00 +11°C° 0 mm 10 mps 763 mmHg 73%
    04:00 +11°C° 0 mm 9 mps 763 mmHg 72%
    05:00 +11°C° 0 mm 9 mps 763 mmHg 72%
    06:00 +11°C° 0 mm 9 mps 764 mmHg 71%
    07:00 +11°C° 0 mm 9 mps 764 mmHg 71%
    08:00 +11°C° 0 mm 9 mps 765 mmHg 70%
    09:00 +11°C° 0 mm 9 mps 765 mmHg 69%
    10:00 +12°C° 0 mm 9 mps 765 mmHg 68%
    11:00 +12°C° 0 mm 9 mps 766 mmHg 66%
    12:00 +12°C° 0 mm 9 mps 765 mmHg 65%
    13:00 +12°C° 0 mm 8 mps 765 mmHg 64%
    14:00 +12°C° 0 mm 8 mps 765 mmHg 63%
    15:00 +12°C° 0 mm 8 mps 765 mmHg 63%
    16:00 +11°C° 0 mm 8 mps 765 mmHg 63%
    17:00 +11°C° 0 mm 9 mps 765 mmHg 63%
    18:00 +11°C° 0 mm 9 mps 766 mmHg 62%
    19:00 +11°C° 0 mm 9 mps 766 mmHg 60%
    20:00 +11°C° 0 mm 9 mps 766 mmHg 59%
    21:00 +11°C° 0 mm 9 mps 766 mmHg 57%
    22:00 +11°C° 0 mm 9 mps 766 mmHg 56%
    23:00 +11°C° 0 mm 9 mps 766 mmHg 54%

    24 November, Saturday

    Time Temperature Precipitation Wind Pressure Humidity
    00:00 +11°C° 0 mm 9 mps 766 mmHg 54%
    01:00 +11°C° 0 mm 9 mps 766 mmHg 55%
    02:00 +10°C° 0 mm 9 mps 766 mmHg 55%
    03:00 +10°C° 0 mm 9 mps 766 mmHg 56%
    04:00 +10°C° 0 mm 9 mps 766 mmHg 57%
    05:00 +10°C° 0 mm 9 mps 765 mmHg 57%
    06:00 +10°C° 0 mm 9 mps 765 mmHg 59%
    07:00 +10°C° 0 mm 8 mps 766 mmHg 60%
    08:00 +10°C° 0 mm 8 mps 766 mmHg 61%
    09:00 +11°C° 0 mm 8 mps 766 mmHg 61%
    10:00 +11°C° 0 mm 7 mps 766 mmHg 61%
    11:00 +11°C° 0 mm 7 mps 766 mmHg 60%
    12:00 +11°C° 0 mm 7 mps 765 mmHg 60%
    13:00 +11°C° 0 mm 6 mps 764 mmHg 60%
    14:00 +11°C° 0 mm 6 mps 764 mmHg 60%
    15:00 +11°C° 0 mm 6 mps 764 mmHg 61%
    16:00 +12°C° 0 mm 5 mps 764 mmHg 62%
    17:00 +12°C° 0 mm 5 mps 764 mmHg 63%
    18:00 +12°C° 0 mm 4 mps 764 mmHg 64%
    19:00 +12°C° 0 mm 4 mps 764 mmHg 65%
    20:00 +11°C° 0 mm 4 mps 764 mmHg 65%
    21:00 +12°C° 0 mm 4 mps 764 mmHg 65%
    22:00 +12°C° 0 mm 3 mps 763 mmHg 65%
    23:00 +12°C° 0 mm 3 mps 763 mmHg 64%

    25 November, Sunday

    Time Temperature Precipitation Wind Pressure Humidity
    00:00 +13°C° 0 mm 2 mps 763 mmHg 65%
    01:00 +13°C° 0 mm 2 mps 763 mmHg 65%
    02:00 +13°C° 0 mm 2 mps 763 mmHg 65%
    03:00 +12°C° 0 mm 2 mps 762 mmHg 66%
    04:00 +12°C° 0 mm 2 mps 762 mmHg 67%
    05:00 +12°C° 0 mm 1 mps 762 mmHg 68%
    06:00 +12°C° 0 mm 1 mps 762 mmHg 68%
    07:00 +13°C° 0 mm 1 mps 762 mmHg 68%
    08:00 +13°C° 0 mm 1 mps 762 mmHg 69%
    09:00 +13°C° 0 mm 1 mps 762 mmHg 67%
    10:00 +14°C° 0 mm 1 mps 762 mmHg 66%
    11:00 +15°C° 0 mm 1 mps 762 mmHg 65%
    12:00 +15°C° 0 mm 1 mps 761 mmHg 66%
    13:00 +15°C° 0 mm 2 mps 760 mmHg 66%
    14:00 +15°C° 0 mm 2 mps 760 mmHg 67%
    15:00 +15°C° 0 mm 2 mps 760 mmHg 68%
    16:00 +15°C° 0 mm 2 mps 760 mmHg 70%
    17:00 +14°C° 0 mm 3 mps 759 mmHg 72%
    18:00 +14°C° 0 mm 3 mps 759 mmHg 73%
    19:00 +14°C° 0 mm 3 mps 759 mmHg 74%
    20:00 +14°C° 0 mm 3 mps 759 mmHg 75%
    21:00 +14°C° 0 mm 4 mps 759 mmHg 77%
    22:00 +15°C° 0 mm 4 mps 759 mmHg 79%
    23:00 +15°C° 0 mm 4 mps 758 mmHg 81%

    26 November, Monday

    Time Temperature Precipitation Wind Pressure Humidity
    00:00 +15°C° 0 mm 5 mps 758 mmHg 83%
    01:00 +15°C° 0 mm 5 mps 758 mmHg 84%
    02:00 +16°C° 0 mm 6 mps 757 mmHg 86%
    03:00 +16°C° 0.1 mm 6 mps 757 mmHg 86%
    04:00 +16°C° 0.1 mm 7 mps 756 mmHg 86%
    05:00 +16°C° 0.1 mm 8 mps 756 mmHg 86%
    06:00 +16°C° 0.2 mm 9 mps 755 mmHg 87%
    07:00 +16°C° 0.2 mm 9 mps 755 mmHg 87%
    08:00 +16°C° 0.2 mm 10 mps 755 mmHg 88%
    09:00 +16°C° 0.5 mm 11 mps 755 mmHg 85%
    10:00 +17°C° 0.5 mm 11 mps 754 mmHg 82%
    11:00 +18°C° 0.5 mm 12 mps 754 mmHg 79%
    12:00 +18°C° 1.3 mm 12 mps 754 mmHg 80%
    13:00 +18°C° 1.3 mm 12 mps 753 mmHg 80%
    14:00 +18°C° 1.3 mm 12 mps 752 mmHg 80%
    15:00 +17°C° 1 mm 11 mps 752 mmHg 82%
    16:00 +17°C° 1 mm 11 mps 752 mmHg 83%
    17:00 +17°C° 1 mm 11 mps 752 mmHg 84%
    18:00 +16°C° 1.5 mm 10 mps 752 mmHg 85%
    19:00 +16°C° 1.5 mm 9 mps 752 mmHg 86%
    20:00 +16°C° 1.5 mm 8 mps 752 mmHg 87%
    21:00 +16°C° 0.7 mm 7 mps 752 mmHg 86%
    22:00 +16°C° 0.7 mm 5 mps 752 mmHg 85%
    23:00 +17°C° 0.7 mm 4 mps 752 mmHg 84%
    Show more